Showing default

COSMOS 252, 3530

Orbit data source: Space-Track

COSMOS 252, 3530 is a payload satellite owned by PKO (CIS) in LEO that was launched on Fri, 01 Nov 1968 UTC via a TSIKLON-2A launch vehicle from the Tyuratam Missile And Space Complex (TTMTR). Payload-class satellites include a variety of spacecraft equipped with specific instruments for various scientific and technological missions. These include communications satellites like Starlink; space stations such as the ISS; scientific satellites like the Hubble; Earth observation satellites from companies like Planet Labs, Umbra, and HawkEye 360; GPS; miniature CubeSats for education and research; and military/defense satellites.

Loading next visibility...
Identifier
3530, 1968-097A
Orbit
LEO
Country
Flag of CISCIS
Related business
Manufacturer
TSKBM/KB1
Mission
Defense Weapon
Bus & Motor
IS, Unknown motor
Mass
1,400 kg wet, ~1,400 kg dry
Launch date (UTC)
1968-11-01 (57 years ago)
Launch vehicle
TSIKLON-2A
Launch site
Tyuratam Missile And Space Complex (TTMTR)
Object type
Payload
Rocket body
Debris
Shape & HBR
Cyl, 2.0 m
Radar Cross Section
7.854 m², Large (>1 m²)

Expand to show TLE details & history
Last TLE update: 1 day ago

TLE from 1 day ago
0 COSMOS 252
1 03530U 68097A   25259.97461781  .00000017  00000-0  49491-4 0  9996
2 03530  62.3222 103.6513 0991969 359.4981   0.4930 12.88176070670752
Epoch: 2025-09-16T23:23Z
TLE epoch observation values (Epoch: 2025-09-16T23:23:26.978Z)
Latitude
-0.0001°
Longitude
116.63162°
Altitude
547.882 km
Speed
7.956 km/s
True Right ascension
06h 54m 36s
True Declination
0° 00' 00"
Sunlit
Object was in daylight at epoch
Visualization orbit readout
Latitude
Unknown
Longitude
Unknown
Altitude
Unknown
Speed
Unknown
Apparent Right ascension
Unknown
Apparent Declination
Unknown
Sunlit
N/A
Visualization observer readout
Local Sidereal Time
19:55:12
Azimuth
Unknown
Elevation
Unknown
Doppler factor
Unknown
Orbital elements
Apogee altitude
2,070.167 km
Perigee altitude
545.334 km
Semi-major axis
7,685.887 km
Eccentricity
0.0992
Inclination
62.3222°
RAAN
103.6513°
Arg. of periapsis
359.4981°
True anomaly
0.60456°
Mean anomaly
0.493°
Eccentric anomaly
0.54729°
Mean motion
3.22108 °/min
Orbital period
111.76 mins
BSTAR
0.000049491
Loading maneuver chart data...
Computing Atmospheric mass density...

Documentation

Showing up to 5 results
|